Flag for Russia Weather past 2 weeks in Murmansk, Russia

Now
36 °F

Partly sunny.


Feels Like: 29 °F
Forecast: 29 / 33 °F
Wind: 8 mph from South

Location: Murmansk Airport

Current Time: Feb 27, 2015 at 2:54:08 PM

Latest Report: Feb 27, 2015 at 2:00 PM


Visibility: N/A

Pressure: 29.86 "Hg

Humidity: 60%

Dew point: 23 °F

Location of MurmanskLocation

Historic Weather in Murmansk — Graph

°F

Murmansk temperature yesterday

Maximum temperature yesterday: 36 °F (at 10:00 AM)
Minimum temperature yesterday: 32 °F (at 1:30 AM)
Average temperature yesterday: 34 °F

Past Weeks' High & Low Weather Summary

 TemperatureHumidityPressure
High36 °F (Feb 25, 1:30 AM)93% (Feb 20, 4:00 AM)30.42 "Hg (Feb 20, 4:00 AM)
Low-9 °F (Feb 15, 7:00 AM)45% (Feb 15, 8:00 PM)28.94 "Hg (Feb 20, 7:00 PM)
Average25 °F74%29.56 "Hg
* Reported Feb 12 1:00 PM — Feb 27 1:30 PM, Murmansk, Weather by CustomWeather, © 2015

Note: Actual official high and low records may vary slightly from our data, if they occured in-between our weather recording intervals... More about our weather records

Advertising

Murmansk weather history for previous 24 hours

 ConditionsComfort  
Time TempWeatherWind HumidityBarometerVisibility
1:30 PM
Fri, Feb 27
36 °FPartly sunny.13 mph60%29.86 "HgN/A
1:00 PM36 °FPartly sunny.8 mph65%29.86 "HgN/A
12:30 PM36 °FPartly sunny.8 mph65%29.89 "HgN/A
12:00 PM36 °FPartly sunny.6 mph65%29.89 "HgN/A
11:30 AM36 °FPartly sunny.6 mph65%29.89 "HgN/A
11:00 AM34 °FPartly sunny.8 mph75%29.89 "HgN/A
10:30 AM34 °FPartly sunny.10 mph75%29.89 "HgN/A
10:00 AM34 °FPartly sunny.10 mph75%29.89 "HgN/A
9:30 AM34 °FPartly sunny.10 mph75%29.86 "HgN/A
9:00 AM34 °FPassing clouds.10 mph75%29.89 "HgN/A
8:30 AM34 °FPartly cloudy.10 mph70%29.89 "HgN/A
8:00 AM34 °FPassing clouds.8 mph75%29.92 "HgN/A
7:30 AM34 °FPassing clouds.6 mph75%29.92 "HgN/A
7:00 AM36 °FPassing clouds.3 mph70%29.92 "HgN/A
6:00 AM36 °FPassing clouds.3 mph65%29.92 "HgN/A
5:30 AM36 °FPassing clouds.3 mph70%29.95 "HgN/A
5:00 AM34 °FPassing clouds.3 mph75%29.95 "HgN/A
4:30 AM36 °FPassing clouds.6 mph70%29.95 "HgN/A
4:00 AM36 °FPassing clouds.6 mph70%29.95 "HgN/A
3:30 AM36 °FPassing clouds.6 mph70%29.95 "HgN/A
3:00 AM36 °FPassing clouds.6 mph75%29.98 "HgN/A
2:30 AM36 °FPassing clouds.6 mph75%29.98 "HgN/A
2:00 AM36 °FPassing clouds.6 mph75%29.98 "HgN/A
1:30 AM36 °FPassing clouds.3 mph75%29.98 "HgN/A
1:00 AM36 °FPassing clouds.3 mph75%29.98 "HgN/A
12:30 AM36 °FPassing clouds.3 mph81%29.98 "HgN/A
12:00 AM36 °FPartly cloudy.1 mph75%29.98 "HgN/A
11:30 PM
Thu, Feb 26
34 °FPartly cloudy.3 mph81%29.95 "HgN/A
11:00 PM34 °FPartly cloudy.3 mph87%29.95 "HgN/A
10:30 PM36 °FPartly cloudy.3 mph81%29.95 "HgN/A
10:00 PM34 °FPartly cloudy.3 mph87%29.95 "HgN/A
9:30 PM34 °FPartly cloudy.3 mph87%29.95 "HgN/A
9:00 PM36 °FPassing clouds.3 mph81%29.95 "HgN/A
8:30 PM34 °FPassing clouds.1 mph93%29.95 "HgN/A
8:00 PM34 °FPassing clouds.3 mph93%29.95 "HgN/A
7:30 PM34 °FPassing clouds.1 mph87%29.95 "HgN/A
7:00 PM34 °FPassing clouds.No wind87%29.95 "HgN/A
6:30 PM34 °FSnow flurries. Partly sunny.1 mph87%29.95 "HgN/A
6:00 PM36 °FPartly sunny.3 mph87%29.95 "HgN/A
5:30 PM36 °FPartly sunny.1 mph87%29.95 "HgN/A
5:00 PM36 °FPartly sunny.1 mph87%29.92 "HgN/A
4:30 PM36 °FPartly sunny.1 mph87%29.92 "HgN/A
4:00 PM36 °FPartly sunny.No wind87%29.92 "HgN/A
3:30 PM36 °FPartly sunny.No wind87%29.92 "HgN/A
3:00 PM36 °FPartly sunny.1 mph87%29.92 "HgN/A
2:30 PM36 °FPartly sunny.1 mph87%29.92 "HgN/A
2:00 PM36 °FSnow flurries. Partly sunny.1 mph87%29.92 "Hg5 mi
Weather by CustomWeather, © 2015

See weather overviewHow to use our weather pages